User: anonymous   Login
Location: Trois-Rivi�res
(46.3500°N, 72.5500°W)
Time: 13:27:28
(UTC-04:00)
Language:

SJ-11-01 - Orbit

View from above orbital plane
View from above orbital plane
View from above satellite
View from above satellite

Ground track
Ground track

The orbit data is extracted from the following two-line orbital elements,

1 36088U 09061A   14303.11244475  .00000965  00000-0  20949-3 0  5353
2 36088 098.0197 347.2397 0011987 025.1964 334.9832 14.60194256264427
Epoch (UTC): 30 October 2014 02:41:55
Eccentricity: 0.0011987
inclination: 98.0197°
perigee height: 684 km
apogee height: 701 km
right ascension of ascending node: 347.2397°
argument of perigee: 25.1964°
revolutions per day: 14.60194256
mean anomaly at epoch: 334.9832°
orbit number at epoch: 26442

The dashed part of the orbit path shows where the satellite is in the earth's shadow,  

DLR